Location: White Mills Observatory
(37.5374°N, 86.0303°W)
Time: 18:06:51
(UTC-05:00)

Amateur Radio Satellites - All Passes

Search period start: 20 November 2017 17:36
Search period end: 21 November 2017 17:36
Location: White Mills Observatory, 37.5374°N, 86.0303°W

Satellite Date Start Highest point End Downlink Frequencies (MHz)
Time Altitude Azimuth
XW-2C 20 Nov 17:41:56 17:45:26 40° 74° (ENE) 17:48:58 145.795 - 145.815
LilacSat-2 20 Nov 17:42:54 17:46:29 46° 74° (ENE) 17:50:06 437.200
BEESAT 20 Nov 17:51:45 17:52:42 11° 299° (WNW) 17:53:41 436.000
XW-2F 20 Nov 17:53:13 17:56:48 53° 76° (ENE) 18:00:27 145.980 - 146.000
SEEDS 20 Nov 18:04:52 18:05:18 10° 64° (ENE) 18:05:43 437.485
DOVE 4 20 Nov 18:05:27 18:09:18 22° 267° (W) 18:13:18 437.250
JUGNU 20 Nov 18:13:49 18:16:09 12° 185° (S) 18:18:28 437.505
CUBEBUG 2 20 Nov 18:18:55 18:21:51 17° 67° (ENE) 18:24:45 437.445
KAITUO 1B 20 Nov 18:22:18 18:25:57 79° 258° (WSW) 18:29:38 145.475/437.950
CUBESAT XI-V 20 Nov 18:28:58 18:31:00 13° 296° (WNW) 18:33:03 437.345
RS-15 20 Nov 18:31:14 18:42:40 48° 109° (ESE) 18:54:08 29.354- 29.394
CUTE-I 20 Nov 18:34:42 18:40:00 63° 258° (WSW) 18:45:21 437.470
XW-2D 20 Nov 18:35:45 18:39:09 34° 262° (W) 18:42:35 145.860 - 145.880
KKS-1 20 Nov 18:37:42 18:41:51 39° 289° (WNW) 18:45:58 437.445
HO-68 20 Nov 18:45:36 18:52:44 71° 71° (ENE) 18:59:54 435.675
XW-2B 20 Nov 18:51:00 18:54:01 23° 264° (W) 18:57:04 145.730 - 145.750
STARS 20 Nov 19:03:46 19:08:02 50° 287° (WNW) 19:12:15 437.465
CUTE 1.7 + AOD 2 20 Nov 19:04:24 19:08:36 89° 271° (W) 19:12:49 437.475
STRAND 1 20 Nov 19:05:55 19:09:01 16° 92° (E) 19:12:04 437.568
XW-2A 20 Nov 19:08:17 19:10:56 22° 71° (ENE) 19:13:36 145.665 - 145.685
NUDT-PHONESAT 20 Nov 19:09:17 19:11:58 19° 265° (W) 19:14:41 437.300
ZACube-1 20 Nov 19:09:18 19:11:59 16° 68° (ENE) 19:14:40 437.345
UWE-3 20 Nov 19:15:50 19:19:58 38° 73° (ENE) 19:24:01 435.000/436.395/437.385
XW-2C 20 Nov 19:18:47 19:19:47 11° 268° (W) 19:20:49 145.795 - 145.815
YUBILEINY 20 Nov 19:20:31 19:26:45 22° 279° (W) 19:32:59 435.215
SEEDS 20 Nov 19:36:17 19:40:24 63° 260° (W) 19:44:32 437.485
FO-29 20 Nov 19:41:23 19:44:54 13° 85° (E) 19:48:18 435.910
AAUSAT CUBESAT 2 20 Nov 19:45:02 19:49:06 66° 76° (ENE) 19:53:13 437.432
CUBEBUG 2 20 Nov 19:53:43 19:58:07 43° 261° (W) 20:02:26 437.445
SRMSAT 20 Nov 19:56:30 19:59:17 13° 178° (S) 20:02:03 437.500
AO-73 20 Nov 19:58:59 20:03:12 52° 74° (ENE) 20:07:19 145.935
Oscar 11 20 Nov 20:16:06 20:20:16 54° 75° (ENE) 20:24:29 .
DELFI C3 20 Nov 20:24:20 20:25:46 12° 66° (ENE) 20:27:13 145.870
ISS 20 Nov 20:33:18 20:35:41 19° 130° (SE) 20:38:06 437.550
HO-68 20 Nov 20:36:05 20:40:59 19° 268° (W) 20:45:55 435.675
XW-2A 20 Nov 20:41:35 20:43:35 15° 266° (W) 20:45:36 145.665 - 145.685
RS-15 20 Nov 20:43:10 20:55:05 53° 310° (NW) 21:06:59 29.354- 29.394
STRAND 1 20 Nov 20:43:30 20:48:29 53° 287° (WNW) 20:53:25 437.568
ZACube-1 20 Nov 20:43:52 20:47:57 39° 262° (W) 20:51:59 437.345
UWE-3 20 Nov 20:53:33 20:56:30 17° 266° (W) 20:59:25 435.000/436.395/437.385
FO-29 20 Nov 21:23:04 21:30:59 81° 103° (ESE) 21:38:20 435.910
nSIGHT-1 20 Nov 21:26:25 21:29:37 82° 320° (NW) 21:32:50 .
EO-88 20 Nov 21:34:38 21:37:58 37° 74° (ENE) 21:41:21 145.990 - 145.960
Max Valier Satellite 20 Nov 21:34:44 21:38:20 57° 75° (ENE) 21:41:55 145.860
AO-73 20 Nov 21:38:11 21:39:40 12° 268° (W) 21:41:09 145.935
SRMSAT 20 Nov 21:45:35 21:47:35 12° 188° (S) 21:49:34 437.500
Oscar 11 20 Nov 21:55:25 21:56:43 11° 269° (W) 21:58:00 .
DELFI C3 20 Nov 21:56:14 22:00:02 48° 261° (W) 22:03:55 145.870
SO-50 20 Nov 22:07:35 22:11:55 56° 117° (ESE) 22:16:20 436.795
ISS 20 Nov 22:08:54 22:11:59 38° 326° (NW) 22:15:04 437.550
NO-84 20 Nov 22:21:14 22:24:58 28° 35° (NE) 22:28:40 435.350 FM
UNISAT 6 20 Nov 22:24:58 22:29:13 63° 100° (E) 22:33:25 437.425
TIGRISAT 20 Nov 22:29:28 22:33:43 65° 101° (ESE) 22:37:55 435.000
ESTCUBE 1 20 Nov 22:59:25 23:03:36 40° 72° (ENE) 23:07:48 437.505/2401.250
RS-15 20 Nov 23:03:00 23:11:26 20° 340° (NNW) 23:19:46 29.354- 29.394
nSIGHT-1 20 Nov 23:04:32 23:06:17 14° 337° (NNW) 23:08:02 .
FO-29 20 Nov 23:09:33 23:14:59 21° 301° (WNW) 23:20:15 435.910
EO-88 20 Nov 23:10:39 23:11:45 11° 268° (W) 23:12:52 145.990 - 145.960
VELOX 1 20 Nov 23:24:54 23:26:26 12° 63° (ENE) 23:27:59 145.980
PRISM 20 Nov 23:33:26 23:37:33 61° 286° (WNW) 23:41:37 437.425
LO-87 20 Nov 23:33:47 23:37:17 47° 261° (W) 23:40:47 145.935 - 145.965
DUCHIFAT 1 20 Nov 23:49:21 23:51:23 13° 92° (E) 23:53:24 145.980
SO-50 20 Nov 23:49:49 23:52:43 17° 314° (NW) 23:55:39 436.795
EO-79 20 Nov 23:55:06 23:58:19 21° 95° (E) 00:01:30 145.935-145.965
NO-84 20 Nov 23:58:24 00:02:25 41° 232° (SW) 00:06:21 435.350 FM
NANOSAT C BR1 20 Nov 23:58:43 00:01:51 20° 95° (E) 00:04:57 145.865
UNISAT 6 21 Nov 00:04:39 00:05:21 10° 297° (WNW) 00:06:03 437.425
O/OREOS (USA 219) 21 Nov 00:08:08 00:12:42 88° 70° (ENE) 00:17:12 437.305
AIST 2D 21 Nov 00:09:18 00:12:48 65° 283° (WNW) 00:16:17 435.315
TIGRISAT 21 Nov 00:09:29 00:09:49 10° 297° (WNW) 00:10:08 435.000
POLYITAN 1 21 Nov 00:09:52 00:13:36 31° 97° (E) 00:17:19 437.675
PCSat 21 Nov 00:12:23 00:17:17 36° 110° (ESE) 00:22:12 145.827
SPROUT 21 Nov 00:22:23 00:26:40 81° 77° (ENE) 00:30:58 437.525
QB50P2 21 Nov 00:32:48 00:37:00 69° 101° (ESE) 00:41:10 145.880/145.840
ESTCUBE 1 21 Nov 00:37:42 00:40:32 16° 267° (W) 00:43:22 437.505/2401.250
BUGSAT 1 21 Nov 00:43:52 00:45:32 12° 92° (E) 00:47:12 437.445
UKube-1 21 Nov 00:53:39 00:56:07 15° 65° (ENE) 00:58:35 .
VELOX 1 21 Nov 00:57:54 01:02:17 63° 259° (W) 01:06:43 145.980
RS-15 21 Nov 01:22:37 01:30:38 19° 17° (NNE) 01:38:24 29.354- 29.394
DUCHIFAT 1 21 Nov 01:23:16 01:27:13 43° 287° (WNW) 01:31:09 145.980
50 SAT 21 Nov 01:28:06 01:31:20 68° 75° (ENE) 01:34:33 437.505
EO-79 21 Nov 01:30:28 01:34:02 27° 290° (WNW) 01:37:35 145.935-145.965
NANOSAT C BR1 21 Nov 01:33:56 01:37:31 28° 290° (WNW) 01:41:06 145.865
DX 1 21 Nov 01:44:30 01:48:52 87° 257° (WSW) 01:53:16 434.975-435.025
POLYITAN 1 21 Nov 01:46:10 01:49:08 19° 292° (WNW) 01:52:06 437.675
Oscar 19 21 Nov 01:51:48 01:56:42 42° 99° (E) 02:01:35 437.125/150
PCSat 21 Nov 01:55:58 02:00:41 30° 307° (NW) 02:05:25 145.827
MOZHAYETS 4 21 Nov 02:04:51 02:07:37 16° 66° (ENE) 02:10:23
Gurwin Techsat 1B 21 Nov 02:14:11 02:19:21 50° 100° (E) 02:24:29 435.225
BUGSAT 1 21 Nov 02:17:16 02:21:05 43° 287° (WNW) 02:24:52 437.445
nSIGHT-1 21 Nov 02:20:19 02:21:15 11° 19° (NNE) 02:22:11 .
UKube-1 21 Nov 02:27:36 02:31:43 44° 260° (W) 02:35:53 .
ISS 21 Nov 03:02:26 03:04:38 17° 25° (NNE) 03:06:50 437.550
BEESAT 3 21 Nov 03:06:25 03:10:20 66° 119° (ESE) 03:14:19 437.485
BEESAT 21 Nov 03:14:59 03:19:44 73° 75° (ENE) 03:24:29 436.000
ITUPSAT 1 21 Nov 03:24:27 03:29:14 89° 83° (E) 03:34:03 437.325
M-CUBED/EXP-1 PRIME 21 Nov 03:31:31 03:36:06 73° 106° (ESE) 03:40:44 437.505
Oscar 19 21 Nov 03:31:50 03:35:42 22° 294° (WNW) 03:39:33 437.125/150
RS-15 21 Nov 03:35:40 03:47:08 49° 49° (NE) 03:57:56 29.354- 29.394
MOZHAYETS 4 21 Nov 03:39:59 03:44:22 46° 261° (W) 03:48:46
ITAMSAT 1 21 Nov 03:43:59 03:48:24 27° 96° (E) 03:52:46 435.822/435.867
CUBESAT XI-V 21 Nov 03:50:42 03:55:05 48° 73° (ENE) 03:59:31 437.345
nSIGHT-1 21 Nov 03:54:58 03:58:06 49° 37° (NE) 04:01:12 .
Gurwin Techsat 1B 21 Nov 03:55:09 03:58:53 20° 295° (WNW) 04:02:36 435.225
KKS-1 21 Nov 03:59:14 04:01:28 14° 64° (ENE) 04:03:41 437.445
AO-7 21 Nov 04:08:31 04:16:49 65° 104° (ESE) 04:25:05 .
BEESAT 2 21 Nov 04:17:10 04:21:09 73° 300° (WNW) 04:25:13 435.950
YUBILEINY 21 Nov 04:28:55 04:33:17 15° 77° (ENE) 04:37:40 435.215
DOVE 4 21 Nov 04:29:47 04:32:02 13° 89° (E) 04:34:16 437.250
ISS 21 Nov 04:38:10 04:41:25 69° 222° (SW) 04:44:38 437.550
BEESAT 3 21 Nov 04:46:35 04:48:17 12° 315° (NW) 04:50:00 437.485
BEESAT 21 Nov 04:57:48 04:57:56 10° 270° (W) 04:58:06 436.000
AO-85 21 Nov 05:04:53 05:08:43 60° 303° (WNW) 05:12:41 145.980
M-CUBED/EXP-1 PRIME 21 Nov 05:08:02 05:09:53 12° 301° (WNW) 05:11:45 437.505
ITAMSAT 1 21 Nov 05:23:13 05:27:50 33° 292° (WNW) 05:32:24 435.822/435.867
CUBESAT XI-V 21 Nov 05:30:10 05:32:41 15° 268° (W) 05:35:14 437.345
nSIGHT-1 21 Nov 05:32:22 05:34:00 13° 232° (SW) 05:35:38 .
KKS-1 21 Nov 05:33:08 05:37:30 54° 259° (W) 05:41:56 437.445
RS-15 21 Nov 05:48:33 05:59:29 49° 251° (WSW) 06:09:55 29.354- 29.394
KAITUO 1B 21 Nov 05:57:06 05:58:18 11° 92° (E) 05:59:29 145.475/437.950
STARS 21 Nov 05:57:43 06:02:08 76° 258° (WSW) 06:06:35 437.465
AO-7 21 Nov 06:02:14 06:08:56 28° 302° (WNW) 06:15:41 .
DOVE 4 21 Nov 06:05:03 06:10:12 65° 285° (WNW) 06:15:03 437.250
XW-2D 21 Nov 06:09:53 06:13:04 25° 96° (E) 06:16:15 145.860 - 145.880
HO-68 21 Nov 06:18:21 06:21:35 13° 90° (E) 06:24:47 435.675
STRAND 1 21 Nov 06:19:49 06:23:30 20° 65° (ENE) 06:27:11 437.568
YUBILEINY 21 Nov 06:19:55 06:28:39 87° 97° (E) 06:37:31 435.215
XW-2B 21 Nov 06:24:25 06:27:57 36° 98° (E) 06:31:30 145.730 - 145.750
NUDT-PHONESAT 21 Nov 06:39:57 06:43:26 38° 98° (E) 06:46:55 437.300
SO-50 21 Nov 06:40:34 06:44:42 31° 52° (NE) 06:48:52 436.795
XW-2C 21 Nov 06:49:47 06:53:36 84° 100° (E) 06:57:25 145.795 - 145.815
LilacSat-2 21 Nov 06:51:37 06:55:28 85° 281° (W) 06:59:18 437.200
CUTE 1.7 + AOD 2 21 Nov 06:51:58 06:54:55 18° 94° (E) 06:57:52 437.475
CUTE-I 21 Nov 06:53:39 06:58:59 61° 101° (ESE) 07:04:15 437.470
XW-2F 21 Nov 07:00:37 07:04:25 75° 283° (WNW) 07:08:13 145.980 - 146.000
SEEDS 21 Nov 07:22:14 07:25:41 24° 95° (E) 07:29:08 437.485
KAITUO 1B 21 Nov 07:28:52 07:32:26 41° 286° (WNW) 07:35:59 145.475/437.950
AAUSAT CUBESAT 2 21 Nov 07:30:51 07:32:28 12° 91° (E) 07:34:04 437.432
FO-29 21 Nov 07:33:02 07:38:41 30° 63° (ENE) 07:44:51 435.910
XW-2D 21 Nov 07:44:18 07:47:03 19° 290° (WNW) 07:49:48 145.860 - 145.880
CUBEBUG 2 21 Nov 07:46:20 07:50:18 42° 99° (E) 07:54:13 437.445
AO-73 21 Nov 07:51:13 07:52:07 11° 91° (E) 07:53:02 145.935
STRAND 1 21 Nov 07:57:22 08:02:18 46° 261° (W) 08:07:15 437.568
XW-2B 21 Nov 07:59:48 08:01:47 14° 293° (WNW) 08:03:45 145.730 - 145.750
HO-68 21 Nov 08:02:54 08:10:08 88° 102° (ESE) 08:17:19 435.675
XW-2A 21 Nov 08:03:25 08:06:26 30° 98° (E) 08:09:27 145.665 - 145.685
Oscar 11 21 Nov 08:07:17 08:08:47 12° 91° (E) 08:10:17 .
NUDT-PHONESAT 21 Nov 08:15:20 08:16:54 12° 293° (WNW) 08:18:28 437.300
YUBILEINY 21 Nov 08:21:01 08:26:36 18° 295° (WNW) 08:32:16 435.215
SO-50 21 Nov 08:21:04 08:25:04 28° 247° (WSW) 08:29:05 436.795
CUTE 1.7 + AOD 2 21 Nov 08:26:57 08:30:47 33° 288° (WNW) 08:34:39 437.475
ZACube-1 21 Nov 08:33:37 08:37:33 41° 99° (E) 08:41:31 437.345
CUTE-I 21 Nov 08:35:12 08:38:28 17° 297° (WNW) 08:41:43 437.470
UWE-3 21 Nov 08:43:09 08:47:17 72° 284° (WNW) 08:51:24 435.000/436.395/437.385
SEEDS 21 Nov 08:57:47 09:01:16 25° 290° (WNW) 09:04:45 437.485
PCSat 21 Nov 09:02:21 09:06:28 21° 50° (NE) 09:10:33 145.827
AAUSAT CUBESAT 2 21 Nov 09:04:07 09:08:09 48° 286° (WNW) 09:12:11 437.432
FO-29 21 Nov 09:17:05 09:23:18 48° 263° (W) 09:30:19 435.910
UNISAT 6 21 Nov 09:21:21 09:25:42 44° 73° (ENE) 09:29:58 437.425
CUBEBUG 2 21 Nov 09:24:21 09:26:31 14° 294° (WNW) 09:28:42 437.445
AO-73 21 Nov 09:24:36 09:28:38 52° 285° (WNW) 09:32:41 145.935
TIGRISAT 21 Nov 09:25:42 09:30:03 44° 73° (ENE) 09:34:20 435.000
FALCONSAT 3 21 Nov 09:28:47 09:31:22 18° 154° (SSE) 09:33:56 435.103
DELFI C3 21 Nov 09:35:11 09:38:23 23° 95° (E) 09:41:33 145.870
XW-2A 21 Nov 09:37:26 09:38:49 12° 292° (WNW) 09:40:11 145.665 - 145.685
Oscar 11 21 Nov 09:40:59 09:45:12 53° 286° (WNW) 09:49:24 .
HO-68 21 Nov 09:52:38 09:56:54 17° 303° (WNW) 10:01:10 435.675
ZACube-1 21 Nov 10:11:12 10:13:29 14° 293° (WNW) 10:15:45 437.345
PRISM 21 Nov 10:20:04 10:24:09 68° 76° (ENE) 10:28:17 437.425
EO-88 21 Nov 10:37:59 10:41:37 67° 100° (E) 10:45:15 145.990 - 145.960
Max Valier Satellite 21 Nov 10:39:47 10:43:27 75° 282° (WNW) 10:47:07 145.860
AIST 2D 21 Nov 10:41:30 10:44:30 28° 73° (ENE) 10:47:30 435.315
PCSat 21 Nov 10:44:54 10:50:10 54° 248° (WSW) 10:55:25 145.827
EO-79 21 Nov 10:46:41 10:48:44 13° 65° (ENE) 10:50:46 145.935-145.965
NANOSAT C BR1 21 Nov 10:50:04 10:51:55 13° 65° (ENE) 10:53:48 145.865
UNISAT 6 21 Nov 10:59:47 11:02:33 16° 267° (W) 11:05:18 437.425
POLYITAN 1 21 Nov 11:00:55 11:03:57 19° 68° (ENE) 11:06:58 437.675
LO-87 21 Nov 11:03:33 11:05:26 14° 93° (E) 11:07:17 145.935 - 145.965
TIGRISAT 21 Nov 11:04:10 11:06:53 16° 267° (W) 11:09:35 435.000
FALCONSAT 3 21 Nov 11:06:28 11:10:02 48° 168° (SSE) 11:13:36 435.103
DELFI C3 21 Nov 11:09:49 11:13:01 23° 290° (WNW) 11:16:12 145.870
QB50P2 21 Nov 11:23:10 11:27:07 38° 72° (ENE) 11:31:03 145.880/145.840
BEESAT 3 21 Nov 11:25:17 11:28:19 21° 50° (NE) 11:31:19 437.485
SPROUT 21 Nov 12:11:08 12:13:39 15° 93° (E) 12:16:10 437.525
DUCHIFAT 1 21 Nov 12:12:14 12:16:27 81° 256° (WSW) 12:20:41 145.980
AIST 2D 21 Nov 12:15:59 12:17:42 13° 267° (W) 12:19:26 435.315
EO-79 21 Nov 12:19:55 12:24:02 48° 260° (W) 12:28:09 145.935-145.965
NANOSAT C BR1 21 Nov 12:23:02 12:27:10 51° 260° (W) 12:31:17 145.865
ESTCUBE 1 21 Nov 12:29:55 12:34:26 69° 284° (WNW) 12:38:55 437.505/2401.250
POLYITAN 1 21 Nov 12:35:40 12:39:29 32° 263° (W) 12:43:18 437.675
LO-87 21 Nov 12:35:47 12:38:52 28° 288° (WNW) 12:41:55 145.935 - 145.965
BEESAT 2 21 Nov 12:36:36 12:40:17 33° 54° (NE) 12:43:55 435.950
O/OREOS (USA 219) 21 Nov 12:41:45 12:43:51 13° 98° (E) 12:45:56 437.305
FALCONSAT 3 21 Nov 12:45:19 12:48:58 62° 184° (S) 12:52:38 435.103
VELOX 1 21 Nov 12:50:05 12:53:53 27° 96° (E) 12:57:39 145.980
QB50P2 21 Nov 13:00:26 13:03:00 16° 267° (W) 13:05:35 145.880/145.840
BEESAT 3 21 Nov 13:02:25 13:05:53 30° 246° (WSW) 13:09:16 437.485
BUGSAT 1 21 Nov 13:04:03 13:08:16 87° 254° (WSW) 13:12:28 437.445
Oscar 19 21 Nov 13:06:39 13:11:35 51° 72° (ENE) 13:16:32 437.125/150
AO-7 21 Nov 13:17:40 13:21:57 15° 50° (NE) 13:26:15 .
Gurwin Techsat 1B 21 Nov 13:33:12 13:38:27 66° 74° (ENE) 13:43:44 435.225
DX 1 21 Nov 13:35:30 13:38:33 18° 94° (E) 13:41:36 434.975-435.025
AO-85 21 Nov 13:36:40 13:41:22 62° 58° (ENE) 13:46:25 145.980
SPROUT 21 Nov 13:45:44 13:49:41 38° 288° (WNW) 13:53:36 437.525
BEESAT 2 21 Nov 14:14:57 14:17:45 18° 250° (WSW) 14:20:29 435.950
M-CUBED/EXP-1 PRIME 21 Nov 14:15:38 14:19:04 57° 70° (ENE) 14:22:48 437.505
UKube-1 21 Nov 14:16:23 14:20:18 32° 98° (E) 14:24:10 .
O/OREOS (USA 219) 21 Nov 14:18:14 14:22:43 53° 293° (WNW) 14:27:15 437.305
50 SAT 21 Nov 14:19:03 14:22:17 77° 102° (ESE) 14:25:29 437.505
FALCONSAT 3 21 Nov 14:24:29 14:27:49 32° 199° (SSW) 14:31:10 435.103
VELOX 1 21 Nov 14:26:34 14:30:11 25° 292° (WNW) 14:33:46 145.980
Oscar 19 21 Nov 14:47:56 14:51:08 17° 267° (W) 14:54:23 437.125/150
ITAMSAT 1 21 Nov 14:59:52 15:04:35 35° 69° (ENE) 15:09:20 435.822/435.867
AO-7 21 Nov 15:05:04 15:13:17 73° 70° (ENE) 15:21:33 .
DX 1 21 Nov 15:10:49 15:14:48 35° 289° (WNW) 15:18:45 434.975-435.025
NO-84 21 Nov 15:11:05 15:14:35 59° 130° (SE) 15:18:24 435.350 FM
Gurwin Techsat 1B 21 Nov 15:16:13 15:18:49 14° 269° (W) 15:21:25 435.225
BEESAT 21 Nov 15:17:46 15:21:20 21° 95° (E) 15:24:53 436.000
AO-85 21 Nov 15:18:41 15:21:23 15° 251° (WSW) 15:24:10 145.980
ITUPSAT 1 21 Nov 15:27:21 15:31:19 26° 96° (E) 15:35:14 437.325
DOVE 4 21 Nov 15:33:44 15:35:29 12° 61° (ENE) 15:37:15 437.250
MOZHAYETS 4 21 Nov 15:36:36 15:40:59 45° 99° (E) 15:45:22
CUBESAT XI-V 21 Nov 15:50:30 15:52:57 14° 92° (E) 15:55:23 437.345
UKube-1 21 Nov 15:52:54 15:56:04 20° 293° (WNW) 15:59:12 .
JUGNU 21 Nov 16:10:23 16:12:50 13° 176° (S) 16:15:17 437.505
YUBILEINY 21 Nov 16:32:55 16:41:05 39° 74° (ENE) 16:49:11 435.215
ITAMSAT 1 21 Nov 16:39:46 16:44:04 25° 264° (W) 16:48:23 435.822/435.867
NO-84 21 Nov 16:49:28 16:52:15 19° 330° (NNW) 16:55:11 435.350 FM
BEESAT 21 Nov 16:54:49 16:59:10 36° 290° (WNW) 17:03:28 436.000
AO-7 21 Nov 17:00:40 17:06:40 22° 266° (W) 17:12:42 .
ITUPSAT 1 21 Nov 17:04:57 17:09:04 29° 291° (WNW) 17:13:09 437.325
XW-2B 21 Nov 17:05:01 17:06:57 14° 67° (ENE) 17:08:54 145.730 - 145.750
DOVE 4 21 Nov 17:07:19 17:12:18 83° 258° (WSW) 17:17:34 437.250
MOZHAYETS 4 21 Nov 17:14:56 17:17:44 16° 294° (WNW) 17:20:33
NUDT-PHONESAT 21 Nov 17:18:22 17:20:11 13° 68° (ENE) 17:22:00 437.300
CUBESAT XI-V 21 Nov 17:26:01 17:30:34 52° 286° (WNW) 17:35:08 437.345
KKS-1 21 Nov 17:26:06 17:30:05 31° 98° (E) 17:34:01 437.445
XW-2C 21 Nov 17:29:12 17:32:24 28° 72° (ENE) 17:35:37 145.795 - 145.815
